EN

Hourly Weather Bor-Kosmyniha

Today, 10 May, Monday

Time Temperature Precipitation Wind Pressure Humidity
00:00 +3°C° 0 mm 1 mps 751 mmHg 74%
01:00 +2°C° 0 mm 1 mps 751 mmHg 74%
02:00 +2°C° 0 mm 1 mps 751 mmHg 75%
03:00 +2°C° 0 mm 0 mps 752 mmHg 73%
04:00 +2°C° 0 mm 0 mps 752 mmHg 70%
05:00 +3°C° 0 mm 0 mps 753 mmHg 68%
06:00 +5°C° 0 mm 0 mps 753 mmHg 61%
07:00 +8°C° 0 mm 1 mps 753 mmHg 53%
08:00 +11°C° 0 mm 1 mps 754 mmHg 46%
09:00 +12°C° 0 mm 1 mps 754 mmHg 42%
10:00 +13°C° 0 mm 1 mps 754 mmHg 38%
11:00 +15°C° 0 mm 1 mps 754 mmHg 35%
12:00 +15°C° 0 mm 2 mps 754 mmHg 34%
13:00 +16°C° 0 mm 2 mps 753 mmHg 33%
14:00 +16°C° 0 mm 2 mps 753 mmHg 33%
15:00 +16°C° 0 mm 2 mps 753 mmHg 37%
16:00 +16°C° 0 mm 2 mps 753 mmHg 41%
17:00 +16°C° 0 mm 2 mps 753 mmHg 44%
18:00 +14°C° 0 mm 2 mps 754 mmHg 52%
19:00 +12°C° 0 mm 2 mps 754 mmHg 59%
20:00 +8°C° 0 mm 2 mps 754 mmHg 66%
21:00 +8°C° 0 mm 2 mps 754 mmHg 67%
22:00 +7°C° 0 mm 2 mps 754 mmHg 68%
23:00 +6°C° 0 mm 2 mps 755 mmHg 69%

Tomorrow, 11 May, Tuesday

Time Temperature Precipitation Wind Pressure Humidity
00:00 +6°C° 0 mm 2 mps 755 mmHg 70%
01:00 +5°C° 0 mm 2 mps 755 mmHg 71%
02:00 +6°C° 0 mm 1 mps 755 mmHg 72%
03:00 +7°C° 0 mm 1 mps 755 mmHg 71%
04:00 +7°C° 0 mm 1 mps 755 mmHg 71%
05:00 +7°C° 0 mm 1 mps 755 mmHg 70%
06:00 +10°C° 0 mm 1 mps 756 mmHg 63%
07:00 +12°C° 0 mm 1 mps 756 mmHg 56%
08:00 +14°C° 0 mm 1 mps 756 mmHg 49%
09:00 +15°C° 0 mm 1 mps 756 mmHg 46%
10:00 +17°C° 0 mm 2 mps 755 mmHg 42%
11:00 +18°C° 0 mm 2 mps 755 mmHg 39%
12:00 +19°C° 0 mm 2 mps 755 mmHg 39%
13:00 +19°C° 0 mm 2 mps 755 mmHg 39%
14:00 +20°C° 0 mm 2 mps 755 mmHg 39%
15:00 +19°C° 0 mm 2 mps 754 mmHg 43%
16:00 +19°C° 0 mm 2 mps 754 mmHg 47%
17:00 +18°C° 0 mm 2 mps 754 mmHg 51%
18:00 +16°C° 0 mm 2 mps 754 mmHg 61%
19:00 +14°C° 0 mm 2 mps 754 mmHg 70%
20:00 +10°C° 0 mm 2 mps 754 mmHg 79%
21:00 +10°C° 0 mm 2 mps 754 mmHg 81%
22:00 +9°C° 0 mm 2 mps 754 mmHg 82%
23:00 +8°C° 0 mm 2 mps 754 mmHg 84%

Day after tomorrow, 12 May, Wednesday

Time Temperature Precipitation Wind Pressure Humidity
00:00 +8°C° 0 mm 2 mps 754 mmHg 85%
01:00 +9°C° 0 mm 1 mps 754 mmHg 87%
02:00 +9°C° 0 mm 1 mps 754 mmHg 88%
03:00 +9°C° 0 mm 1 mps 754 mmHg 87%
04:00 +10°C° 0 mm 1 mps 754 mmHg 86%
05:00 +10°C° 0 mm 1 mps 754 mmHg 86%
06:00 +13°C° 0 mm 1 mps 754 mmHg 80%
07:00 +15°C° 0 mm 2 mps 754 mmHg 74%
08:00 +17°C° 0 mm 2 mps 754 mmHg 68%
09:00 +19°C° 0 mm 2 mps 754 mmHg 64%
10:00 +20°C° 0 mm 3 mps 753 mmHg 59%
11:00 +22°C° 0 mm 3 mps 753 mmHg 55%
12:00 +22°C° 0 mm 4 mps 752 mmHg 53%
13:00 +23°C° 0 mm 4 mps 752 mmHg 52%
14:00 +23°C° 0 mm 4 mps 752 mmHg 51%
15:00 +22°C° 0.1 mm 4 mps 751 mmHg 55%
16:00 +22°C° 0.1 mm 4 mps 751 mmHg 59%
17:00 +21°C° 0.1 mm 4 mps 750 mmHg 63%
18:00 +19°C° 0.5 mm 4 mps 750 mmHg 71%
19:00 +18°C° 0.5 mm 4 mps 750 mmHg 78%
20:00 +16°C° 0.5 mm 3 mps 749 mmHg 86%
21:00 +14°C° 0 mm 3 mps 749 mmHg 89%
22:00 +14°C° 0 mm 3 mps 749 mmHg 91%
23:00 +13°C° 0 mm 3 mps 749 mmHg 93%

13 May, Thursday

Time Temperature Precipitation Wind Pressure Humidity
00:00 +13°C° 0 mm 2 mps 749 mmHg 95%
01:00 +13°C° 0 mm 2 mps 749 mmHg 96%
02:00 +12°C° 0 mm 2 mps 750 mmHg 97%
03:00 +12°C° 0 mm 2 mps 750 mmHg 97%
04:00 +12°C° 0 mm 2 mps 750 mmHg 96%
05:00 +12°C° 0 mm 2 mps 750 mmHg 95%
06:00 +13°C° 0 mm 2 mps 750 mmHg 88%
07:00 +13°C° 0 mm 3 mps 749 mmHg 81%
08:00 +14°C° 0 mm 3 mps 749 mmHg 74%
09:00 +17°C° 0 mm 3 mps 749 mmHg 66%
10:00 +18°C° 0 mm 3 mps 749 mmHg 59%
11:00 +19°C° 0 mm 4 mps 749 mmHg 52%
12:00 +19°C° 0 mm 3 mps 748 mmHg 53%
13:00 +19°C° 0 mm 3 mps 748 mmHg 55%
14:00 +19°C° 0 mm 3 mps 748 mmHg 56%
15:00 +19°C° 0 mm 3 mps 748 mmHg 60%
16:00 +18°C° 0 mm 3 mps 747 mmHg 63%
17:00 +18°C° 0 mm 2 mps 747 mmHg 66%
18:00 +16°C° 0 mm 2 mps 747 mmHg 75%
19:00 +15°C° 0 mm 2 mps 747 mmHg 84%
20:00 +13°C° 0 mm 2 mps 747 mmHg 94%
21:00 +13°C° 0 mm 1 mps 747 mmHg 95%
22:00 +12°C° 0 mm 1 mps 747 mmHg 96%
23:00 +12°C° 0 mm 1 mps 748 mmHg 97%

14 May, Friday

Time Temperature Precipitation Wind Pressure Humidity
00:00 +11°C° 0 mm 1 mps 748 mmHg 97%
01:00 +11°C° 0 mm 1 mps 748 mmHg 96%
02:00 +11°C° 0 mm 1 mps 748 mmHg 96%
03:00 +11°C° 0 mm 1 mps 748 mmHg 94%
04:00 +11°C° 0 mm 1 mps 748 mmHg 93%
05:00 +12°C° 0 mm 1 mps 748 mmHg 92%
06:00 +13°C° 0 mm 2 mps 748 mmHg 85%
07:00 +15°C° 0 mm 2 mps 747 mmHg 78%
08:00 +16°C° 0 mm 3 mps 747 mmHg 71%
09:00 +18°C° 0 mm 3 mps 747 mmHg 65%
10:00 +19°C° 0 mm 3 mps 747 mmHg 60%
11:00 +21°C° 0 mm 3 mps 747 mmHg 54%
12:00 +21°C° 0 mm 4 mps 746 mmHg 52%
13:00 +22°C° 0 mm 4 mps 746 mmHg 50%
14:00 +22°C° 0 mm 4 mps 746 mmHg 48%
15:00 +22°C° 0 mm 4 mps 745 mmHg 53%
16:00 +21°C° 0 mm 4 mps 744 mmHg 59%
17:00 +20°C° 0 mm 3 mps 744 mmHg 64%
18:00 +19°C° 1.2 mm 3 mps 744 mmHg 73%
19:00 +18°C° 1.2 mm 3 mps 743 mmHg 83%
20:00 +16°C° 1.2 mm 3 mps 743 mmHg 92%
21:00 +16°C° 0.3 mm 3 mps 743 mmHg 92%
22:00 +16°C° 0.3 mm 3 mps 742 mmHg 93%
23:00 +14°C° 0.3 mm 3 mps 742 mmHg 94%

15 May, Saturday

Time Temperature Precipitation Wind Pressure Humidity
00:00 +14°C° 0 mm 3 mps 742 mmHg 95%
01:00 +14°C° 0 mm 3 mps 741 mmHg 96%
02:00 +13°C° 0 mm 3 mps 741 mmHg 97%
03:00 +13°C° 0 mm 3 mps 741 mmHg 97%
04:00 +14°C° 0 mm 3 mps 741 mmHg 97%
05:00 +14°C° 0 mm 3 mps 741 mmHg 97%
06:00 +14°C° 0 mm 3 mps 741 mmHg 93%
07:00 +16°C° 0 mm 3 mps 741 mmHg 89%
08:00 +16°C° 0 mm 3 mps 742 mmHg 85%
09:00 +18°C° 0 mm 3 mps 742 mmHg 76%
10:00 +20°C° 0 mm 3 mps 742 mmHg 67%
11:00 +21°C° 0 mm 3 mps 742 mmHg 58%
12:00 +21°C° 0 mm 3 mps 742 mmHg 57%
13:00 +22°C° 0 mm 3 mps 742 mmHg 55%
14:00 +22°C° 0 mm 3 mps 742 mmHg 54%
15:00 +21°C° 0 mm 3 mps 742 mmHg 58%
16:00 +21°C° 0 mm 2 mps 742 mmHg 61%
17:00 +20°C° 0 mm 2 mps 742 mmHg 64%
18:00 +18°C° 0 mm 2 mps 742 mmHg 72%
19:00 +17°C° 0 mm 2 mps 742 mmHg 80%
20:00 +15°C° 0 mm 1 mps 742 mmHg 88%
21:00 +15°C° 0 mm 1 mps 742 mmHg 88%
22:00 +14°C° 0 mm 1 mps 742 mmHg 89%
23:00 +14°C° 0 mm 1 mps 742 mmHg 89%
Show more

We Need Your Consent

Meteoprog and our Service Providers may store and access personal data such as cookies, device identifiers or other similar technologies on your device and process such data to personalise content and ads, as well as provide social media features and to analyse the traffic.

  • Store and/or access information on your device

    Cookies, device identifiers or other information can be stored or accessed on your device for the purposes indicated above.

  • Personalised ads and content, ad and content measurement, audience insights, and products development

    Ads and content can be personalised based on a profile. More data can be added to better personalise ads and content. Ad and content performance can be measured. Insights about the audience who saw the ads and content can be derived. Such data can be used to develop or improve user’s experience, systems and software.

By clicking ‘I Agree’ you will allow the use of indicated cookies, device identifiers, web beacons or other similar technologies. Your settings can be changed in the browser on your device.

For certain purposes, legitimate interests may be relied on, rather than consent. You can read more about this in our Privacy and Cookie Policy.